[[{"header":{"parameterUnit":"m.s-1","parameterCategory":1,"la1":30.2991,"la2":30.254,"lo1":-89.0895,"lo2":-89.0444,"dy":0.0017,"dx":0.0017,"nx":28,"ny":28,"refTime":"2023-09-15T21:00:00:Z","depth":0,"parameterNumber":2,"parameterNumberName":"U-component_of_WINDS"},"data":[0,0,0,0,0,0,0,0,0,0,0,0,0,0,0,0,0,0,0,0,0,0,0,0,0,0,0,0,0,0,0,0,0,0,0,0,0,0,0,0,0,0,0,0,0,0,0,0,0,0,0,0,0,0,0,0,0,0,0.5961,0.5961,0,0.5957,0.5956,0.5956,0.5942,0.5942,0.5941,0.5941,0.5938,0.5939,0.5939,0,0,0,0,0,0,0,0,0,0,0,0,0,0.5959,0.5959,0.5961,0.5961,0.596,0.5957,0.5956,0.5956,0.5942,0.5942,0.5941,0.5941,0.5938,0.5938,0.5939,0,0,0,0,0,0,0,0,0,0,0,0,0,0.5958,0.5959,0.5961,0.5953,0.5952,0.5957,0.5956,0.5956,0.5942,0.5942,0.5941,0.5941,0.5938,0.5938,0.5939,0.5951,0,0,0.594,0.594,0,0,0,0,0,0,0,0,0.5958,0.5958,0.5954,0.5953,0.5952,0.5949,0.5955,0.5955,0.5942,0.5946,0.5941,0.594,0.5942,0.5942,0.5943,0.5951,0.5951,0.594,0.594,0.594,0.594,0,0,0,0,0,0,0,0.5958,0.5958,0.5959,0.5954,0.5953,0.595,0.595,0.5955,0.5947,0.5946,0.5944,0.5944,0.5942,0.5942,0.5943,0.5951,0.594,0.594,0.594,0.5941,0.5971,0.5972,0,0,0,0,0,0,0.5959,0.5958,0.5959,0.5959,0.5954,0.5951,0.595,0.5951,0.5947,0.5946,0.5945,0.5943,0.5942,0.5942,0.5942,0.5958,0.594,0.5941,0.5941,0.5971,0.5971,0.5972,0,0,0,0,0,0,0.5959,0.5959,0.5959,0.5958,0.5958,0.5951,0.5952,0.5951,0.5951,0.5946,0.5945,0.5946,0.5942,0.5942,0.5949,0.5958,0.5941,0.5941,0.597,0.5971,0.5972,0.5988,0,0,0,0,0,0,0.5959,0.5959,0.5963,0.5958,0.5958,0.5965,0.5953,0.5951,0.5952,0.595,0.5947,0.5947,0.5941,0.5949,0.595,0.5958,0.5941,0.5969,0.597,0.5972,0.5987,0.599,0.5992,0,0,0,0,0,0.5959,0.5967,0.5963,0.5963,0.5962,0.5966,0.5966,0.5959,0.5953,0.5957,0.5954,0.5947,0.5957,0.595,0.5951,0.5959,0.5969,0.597,0.5971,0.5986,0.5989,0.5992,0,0,0,0,0,0,0.5973,0.5966,0.5962,0.5969,0.5968,0.5963,0.5968,0.5963,0.5964,0.5962,0.5955,0.5954,0.5963,0.5962,0.5954,0.5972,0.5962,0.5963,0.5972,0.5975,0.5978,0.5978,0.5942,0,0,0,0,0,0.5977,0.5979,0.5974,0.5981,0.5981,0.5975,0.5976,0.5971,0.597,0.597,0.5967,0.5967,0.5971,0.5973,0.5975,0.5987,0.5987,0.5993,0.5996,0.5998,0.5999,0.6007,0.6011,0.5977,0.5977,0.5977,0,0,0.5985,0.5982,0.5984,0.5984,0.5982,0.5986,0.5975,0.5979,0.5982,0.5971,0.5978,0.5976,0.5976,0.5986,0.599,0.5985,0.6009,0.5999,0.6001,0.6002,0.6009,0.6012,0.6015,0.5977,0.5977,0.5977,0,0,0.6002,0.5999,0.6005,0.6005,0.6003,0.6,0.6001,0.5998,0.5997,0.6004,0.5996,0.6,0.6006,0.6006,0.6007,0.6027,0.6021,0.6028,0.6041,0.6049,0.6052,0.6055,0.6063,0.6066,0.603,0.603,0.603,0,0.6012,0.6017,0.6009,0.6015,0.6016,0.6006,0.6013,0.6013,0.6013,0.6015,0.6009,0.6017,0.6016,0.6027,0.6032,0.6033,0.6036,0.6029,0.6052,0.6055,0.6057,0.6065,0.6068,0.6031,0.6031,0.6031,0.6031,0,0.603,0.6034,0.604,0.604,0.6042,0.6048,0.6043,0.6046,0.6041,0.6039,0.6048,0.6046,0.605,0.6052,0.6047,0.6063,0.606,0.6053,0.6043,0.6061,0.6069,0.6072,0.6032,0.6032,0.6032,0.6031,0,0,0.6054,0.6052,0.6054,0.6055,0.6054,0.6057,0.6064,0.6067,0.6071,0.6071,0.6078,0.6084,0.6078,0.608,0.6076,0.6083,0.6101,0.6075,0.6075,0.6081,0.612,0.6126,0.613,0.6097,0.6097,0.6098,0.6121,0,0.6071,0.6082,0.6077,0.6089,0.6094,0.6086,0.6092,0.6093,0.6091,0.6096,0.6094,0.6099,0.609,0.6092,0.6098,0.6097,0.6109,0.6095,0.6104,0.6105,0.6105,0.6133,0.6139,0.616,0.6124,0.6124,0.6124,0,0.6092,0.6094,0.6107,0.6107,0.6109,0.6114,0.6118,0.6122,0.6123,0.6122,0.6125,0.612,0.6128,0.6118,0.6131,0.6122,0.6125,0.6126,0.6126,0.6127,0.6116,0.6136,0.6167,0.6171,0.6129,0.6128,0.6128,0,0.611,0.6116,0.6125,0.6126,0.6126,0.613,0.6131,0.6132,0.6135,0.6138,0.6141,0.6145,0.6148,0.6152,0.6149,0.6142,0.6163,0.6152,0.6164,0.6164,0.6168,0.6168,0.6201,0.617,0.6169,0.6169,0.6169,0,0.613,0.6138,0.6133,0.6139,0.6149,0.6144,0.6154,0.6153,0.6155,0.6161,0.6155,0.6161,0.6157,0.6163,0.6161,0.6173,0.6174,0.6174,0.6174,0.6175,0.6175,0.6178,0.6177,0.617,0.617,0.617,0.617,0,0.6152,0.6148,0.6158,0.6157,0.6158,0.6165,0.6165,0.6171,0.617,0.6178,0.618,0.6178,0.6186,0.6184,0.6192,0.6191,0.6206,0.6203,0.6205,0.6205,0.6217,0.6217,0.6253,0.6259,0.6223,0.6223,0.6223,0,0.6164,0.6171,0.6172,0.6175,0.6176,0.6182,0.6186,0.6182,0.6186,0.6189,0.6195,0.6202,0.6208,0.6221,0.6221,0.6228,0.6226,0.6238,0.6227,0.6229,0.6227,0.6227,0.6229,0.6241,0.6241,0.6241,0.6242,0,0.6189,0.6187,0.6192,0.6197,0.6201,0.6205,0.6208,0.6212,0.6209,0.6214,0.6221,0.6226,0.6235,0.6243,0.6249,0.6251,0.6247,0.6245,0.6249,0.625,0.6252,0.6253,0.6213,0.6244,0.6244,0.6244,0.6244,0.6244,0.6207,0.6213,0.6215,0.6221,0.6224,0.6228,0.6234,0.6234,0.624,0.6247,0.6244,0.6254,0.6258,0.6266,0.6269,0.6278,0.6273,0.6277,0.6278,0.628,0.6282,0.625,0.6279,0.6278,0.6278,0.6278,0.6278,0,0.6232,0.6233,0.6239,0.6244,0.625,0.6245,0.6249,0.6254,0.6263,0.6266,0.6272,0.6283,0.6291,0.6292,0.63,0.6307,0.6305,0.6309,0.6309,0.631,0.6285,0.6282,0.6311,0.6311,0.6311,0.6311,0.6311,0.6311,0.6245,0.6256,0.6255,0.6268,0.627,0.6279,0.6282,0.6286,0.6289,0.6301,0.6308,0.6309,0.6312,0.6321,0.6329,0.633,0.6334,0.6339,0.6339,0.6315,0.6312,0.6309,0.6306,0.6339,0.6339,0.6364,0.6364,0.6364]},{"header":{"parameterUnit":"m.s-1","parameterCategory":1,"la1":30.2991,"la2":30.254,"lo1":-89.0895,"lo2":-89.0444,"dy":0.0017,"dx":0.0017,"nx":28,"ny":28,"refTime":"2023-09-15T21:00:00:Z","depth":0,"parameterNumber":3,"parameterNumberName":"V-component_of_WINDS"},"data":[0,0,0,0,0,0,0,0,0,0,0,0,0,0,0,0,0,0,0,0,0,0,0,0,0,0,0,0,0,0,0,0,0,0,0,0,0,0,0,0,0,0,0,0,0,0,0,0,0,0,0,0,0,0,0,0,0,0,-3.4862,-3.4863,0,-3.4926,-3.4927,-3.4928,-3.4961,-3.4961,-3.4961,-3.4961,-3.5022,-3.5024,-3.5025,0,0,0,0,0,0,0,0,0,0,0,0,0,-3.4765,-3.4767,-3.4862,-3.4863,-3.4864,-3.4926,-3.4927,-3.4928,-3.4961,-3.4961,-3.4961,-3.4961,-3.5022,-3.5024,-3.5026,0,0,0,0,0,0,0,0,0,0,0,0,0,-3.4816,-3.4768,-3.4862,-3.4888,-3.4891,-3.4926,-3.4927,-3.4928,-3.4961,-3.4961,-3.4961,-3.4961,-3.5021,-3.5023,-3.5026,-3.5039,0,0,-3.5033,-3.5034,0,0,0,0,0,0,0,0,-3.4813,-3.482,-3.4883,-3.4886,-3.489,-3.4936,-3.4916,-3.4965,-3.4961,-3.4934,-3.4961,-3.4961,-3.4993,-3.4998,-3.501,-3.5042,-3.5044,-3.5033,-3.5035,-3.5036,-3.5036,0,0,0,0,0,0,0,-3.481,-3.4817,-3.4887,-3.4884,-3.4888,-3.4895,-3.4903,-3.4925,-3.4962,-3.4937,-3.4939,-3.4947,-3.4995,-3.5007,-3.5011,-3.5045,-3.5033,-3.5035,-3.5037,-3.5038,-3.5094,-3.5094,0,0,0,0,0,0,-3.4802,-3.4814,-3.4885,-3.4889,-3.4851,-3.4897,-3.4905,-3.4921,-3.4962,-3.4969,-3.4946,-3.4948,-3.5003,-3.5008,-3.5014,-3.5033,-3.5036,-3.5038,-3.5039,-3.5094,-3.5094,-3.5094,0,0,0,0,0,0,-3.48,-3.4809,-3.4883,-3.4852,-3.4863,-3.4899,-3.4916,-3.4922,-3.4935,-3.497,-3.4976,-3.4952,-3.5003,-3.501,-3.5033,-3.5036,-3.5039,-3.5041,-3.5093,-3.5094,-3.5094,-3.5071,0,0,0,0,0,0,-3.4797,-3.4808,-3.4813,-3.4852,-3.4864,-3.4902,-3.4916,-3.4923,-3.4939,-3.4942,-3.4977,-3.4983,-3.5004,-3.503,-3.5036,-3.5039,-3.5043,-3.5093,-3.5094,-3.5094,-3.5072,-3.5071,-3.5069,0,0,0,0,0,-3.4794,-3.4803,-3.4813,-3.4822,-3.4872,-3.4902,-3.4909,-3.4934,-3.4939,-3.4945,-3.4968,-3.4982,-3.5035,-3.5032,-3.5039,-3.5043,-3.5093,-3.5093,-3.5094,-3.5072,-3.5071,-3.5069,0,0,0,0,0,0,-3.476,-3.4808,-3.482,-3.4843,-3.4868,-3.4908,-3.4916,-3.4931,-3.4954,-3.4956,-3.4985,-3.4993,-3.5013,-3.503,-3.5026,-3.5059,-3.5065,-3.5067,-3.5047,-3.5046,-3.5044,-3.504,-3.5045,0,0,0,0,0,-3.4756,-3.4778,-3.4818,-3.4833,-3.4846,-3.4879,-3.4893,-3.491,-3.4937,-3.4948,-3.4973,-3.4997,-3.502,-3.5033,-3.5056,-3.5075,-3.5083,-3.5081,-3.508,-3.5079,-3.508,-3.5093,-3.5093,-3.5094,-3.5094,-3.5094,0,0,-3.4746,-3.4775,-3.4787,-3.4828,-3.485,-3.4871,-3.4887,-3.4908,-3.4924,-3.4951,-3.4975,-3.4994,-3.5023,-3.5045,-3.5055,-3.506,-3.5081,-3.5079,-3.5078,-3.5079,-3.5093,-3.5093,-3.5092,-3.5094,-3.5094,-3.5094,0,0,-3.474,-3.4764,-3.4781,-3.4803,-3.4838,-3.486,-3.4864,-3.4902,-3.4916,-3.4941,-3.4962,-3.4981,-3.5018,-3.5039,-3.5054,-3.5059,-3.5073,-3.5066,-3.5059,-3.5071,-3.5071,-3.5071,-3.5074,-3.5074,-3.5066,-3.5066,-3.5066,0,-3.4723,-3.4757,-3.4787,-3.4808,-3.4826,-3.4853,-3.487,-3.489,-3.4929,-3.494,-3.4945,-3.4995,-3.5016,-3.5044,-3.5046,-3.5057,-3.5062,-3.5061,-3.5069,-3.5069,-3.507,-3.5073,-3.5073,-3.5065,-3.5065,-3.5066,-3.5066,0,-3.4736,-3.4759,-3.4768,-3.4808,-3.4827,-3.4846,-3.4878,-3.4893,-3.491,-3.4931,-3.4957,-3.4985,-3.5014,-3.5022,-3.5037,-3.5053,-3.5054,-3.5064,-3.5071,-3.5068,-3.5071,-3.5072,-3.5064,-3.5064,-3.5064,-3.5065,0,0,-3.4708,-3.4767,-3.477,-3.4789,-3.483,-3.4848,-3.4869,-3.49,-3.4913,-3.4939,-3.4957,-3.499,-3.4999,-3.5017,-3.5035,-3.5046,-3.505,-3.5054,-3.5055,-3.5053,-3.5069,-3.5062,-3.5063,-3.5059,-3.506,-3.506,-3.5067,0,-3.4708,-3.4748,-3.4777,-3.4805,-3.4828,-3.4855,-3.4873,-3.49,-3.4921,-3.4943,-3.4966,-3.4989,-3.4999,-3.5011,-3.5023,-3.5047,-3.5053,-3.5046,-3.5076,-3.5077,-3.5068,-3.5065,-3.5057,-3.5062,-3.5068,-3.5069,-3.5069,0,-3.4713,-3.4742,-3.4773,-3.4814,-3.4825,-3.484,-3.4872,-3.4893,-3.4924,-3.4939,-3.496,-3.498,-3.5002,-3.5008,-3.504,-3.5035,-3.5049,-3.5062,-3.5063,-3.5067,-3.5072,-3.5069,-3.5065,-3.5066,-3.5071,-3.5071,-3.5071,0,-3.4691,-3.4737,-3.4763,-3.4778,-3.4826,-3.4837,-3.4857,-3.4889,-3.4907,-3.4934,-3.4946,-3.4975,-3.499,-3.5012,-3.5039,-3.5041,-3.5068,-3.5076,-3.5081,-3.5081,-3.5085,-3.5085,-3.5084,-3.5094,-3.5094,-3.5094,-3.5094,0,-3.4688,-3.4706,-3.4754,-3.4769,-3.4791,-3.4824,-3.4844,-3.4866,-3.4895,-3.4915,-3.494,-3.4958,-3.4992,-3.5014,-3.5035,-3.5059,-3.5066,-3.5078,-3.5084,-3.5076,-3.5075,-3.5086,-3.5086,-3.5094,-3.5094,-3.5094,-3.5094,0,-3.4667,-3.4699,-3.4729,-3.4774,-3.4785,-3.4799,-3.4837,-3.4853,-3.4877,-3.4902,-3.491,-3.4947,-3.4974,-3.5004,-3.504,-3.5055,-3.5078,-3.5085,-3.5068,-3.5071,-3.5075,-3.5074,-3.5081,-3.5084,-3.5091,-3.5091,-3.5091,0,-3.4663,-3.4678,-3.4725,-3.4742,-3.4762,-3.4788,-3.4807,-3.484,-3.4859,-3.4897,-3.4909,-3.4939,-3.4965,-3.5008,-3.5037,-3.5066,-3.5074,-3.5075,-3.5078,-3.5071,-3.5075,-3.5074,-3.5076,-3.5073,-3.5073,-3.5073,-3.5072,0,-3.4652,-3.4669,-3.4696,-3.473,-3.4753,-3.478,-3.4809,-3.482,-3.4859,-3.4879,-3.4909,-3.4929,-3.4969,-3.4998,-3.5031,-3.5051,-3.5068,-3.5071,-3.5074,-3.5067,-3.5057,-3.5063,-3.5065,-3.5071,-3.5071,-3.5071,-3.5071,-3.5071,-3.464,-3.4656,-3.4693,-3.4723,-3.4749,-3.4775,-3.4794,-3.4821,-3.4847,-3.4884,-3.4901,-3.4931,-3.4964,-3.501,-3.503,-3.5054,-3.5059,-3.5062,-3.5063,-3.5064,-3.5063,-3.5053,-3.506,-3.506,-3.506,-3.506,-3.506,0,-3.4632,-3.4658,-3.4686,-3.4727,-3.4751,-3.4767,-3.48,-3.4819,-3.4846,-3.4876,-3.4902,-3.4937,-3.4967,-3.4999,-3.5031,-3.5044,-3.5052,-3.5051,-3.505,-3.5055,-3.5056,-3.5051,-3.5043,-3.5043,-3.5043,-3.5043,-3.5043,-3.5043,-3.4631,-3.4659,-3.468,-3.4722,-3.4747,-3.4779,-3.4796,-3.4821,-3.4846,-3.4885,-3.4911,-3.4933,-3.4964,-3.4998,-3.5026,-3.5035,-3.5046,-3.5042,-3.5053,-3.5053,-3.5054,-3.5056,-3.5051,-3.5044,-3.5044,-3.505,-3.505,-3.505]}]]